Location: Biltmore Gardens
(41.6070°N, 83.4666°W)
Time: 23:30:35
(UTC+00:00)

A-11 Canister half - Pass Details

Date: 23 April 2021
Orbit: 1526 x 1682 km, 47.3° (Epoch: 14 May)

Event Time Altitude Azimuth Distance (km) Brightness Sun altitude
Rises 00:41:25 0° 291° (WNW) 4,925 15.0 -4.2°
Reaches altitude 10° 00:44:35 10° 293° (WNW) 3,943 13.1 -4.7°
Maximum altitude 00:54:48 79° 21° (NNE) 1,709 9.3 -6.5°
Drops below altitude 10° 01:04:55 10° 108° (ESE) 3,907 10.4 -8.2°
Enters shadow 01:05:11 - 109° (ESE) 3,987 10.5 -8.3°
